Weather in Ermekeevo

Russia / Republic of Bashkortostan     54°04′37″N   53°40′12″E
temp.,
°C
wind,
m/s
gust,
m/s
humid.,
%
clouds,
%
prec.,
mm/h
press.,
hPa
HPBL,
m
27 february, sat
sat2723:00−18sse8169384 0.0 1017442
02:00−16sse91791100 0.0 1012559
05:00−14sse101894100 2.3 1007587
08:00−13sse91693100 2.9 1004625
11:00−11sse81393100 3.4 1002497
14:00−8sse81394100 0.6 1001437
17:00−6sse61094100 1.1 1000318
20:00−4sse5896100 1.1 999257
28 february, sun
sun2823:00−2s3698100 2.6 998211
02:00−1sw3599100 1.3 997243
05:00−1sw2399100 2.4 998133
08:00−4nw239887 0.4 99840
11:00−6n469583 0.6 1000230
14:00−7n579498 0.0 1002328
17:00−9nnw589398 0.1 1004368
20:00−12nnw499597 0.1 1006279
1 march, mon
mon123:00−15nnw369793 0.1 1009129
02:00−14nnw3796100 0.1 1011245
05:00−15nnw479595 0.3 1013239
08:00−17n379684 0.1 1015224
11:00−18nnw359583 0.1 1017216
14:00−15nnw359496 0.0 1019296
17:00−15nnw359498 0.0 1020322
20:00−20n2210085 0.0 102120
2 march, tue
tue223:00−23wnw1110057 0.0 102120
02:00−23sw2210054 0.0 102120
05:00−23ssw2310060 0.0 102022
08:00−24s3410075 0.0 101863
11:00−19s599886 0.0 1016260
14:00−15s71296100 0.1 1013369
17:00−13s81394100 0.4 1010496
20:00−12s71494100 0.8 1008548
3 march, wed
wed323:00−10s71494100 1.4 1006489
02:00−7s61395100 0.8 1003524
05:00−5s51196100 1.5 1001434
08:00−6ssw4896100 0.4 999222
11:00−5sw359697 0.8 999218
14:00−4sw459595 0.1 1000353
17:00−4sw359697 0.5 1000336
20:00−5nnw61094100 0.6 1001398